Location: Grasslands National Park East Block
(49.0708°N, 106.5295°W)
Time: 14:05:25
(UTC-06:00)

Vanguard 1 Rocket - Pass Details

Date: 01 October 2019
Orbit: 650 x 4226 km, 34.3° (Epoch: 13 October)

Event Time Altitude Azimuth Distance (km) Brightness Sun altitude
Rises 14:47:23 0° 215° (SW) 7,802 13.3 32.3°
Reaches altitude 10° 14:53:02 10° 208° (SSW) 7,083 13.4 31.8°
Maximum altitude 15:14:54 39° 150° (SSE) 5,302 11.8 29.5°
Drops below altitude 10° 15:34:04 10° 92° (E) 6,318 11.4 27.4°
Sets 15:38:37 0° 85° (E) 6,932 11.5 26.8°
